Chicago Executive, IL

9:45 AM CST on December 09, 2019 (GMT -0600)
Chicago Executive

Weather History for KPWK - October, 2019

Change the Weather History Date:

Tuesday, October 15, 2019

  Actual Average Record
Temperature  
Mean Temperature 51 °F 52 °F  
Max Temperature 63 °F 62 °F 78 °F (1999)
Min Temperature 39 °F 43 °F 28 °F (2006)
Degree Days  
Heating Degree Days 14 13  
Month to date heating degree days 160  
Since 1 July heating degree days 272  
Cooling Degree Days 0 0  
Month to date cooling degree days 11  
Year to date cooling degree days 789  
Growing Degree Days 1 (Base 50)    
Moisture  
Dew Point 43 °F    
Average Humidity 70    
Maximum Humidity 86    
Minimum Humidity 53    
Precipitation  
Precipitation 0.00 in 0.09 in 0.41 in (2009)
Month to date precipitation 1.49  
Year to date precipitation 27.18  
Sea Level Pressure  
Sea Level Pressure 29.84 in    
Wind  
Wind Speed 6 mph ()    
Max Wind Speed 21 mph    
Max Gust Speed 36 mph    
Visibility 9.0 miles    
Events      
T = Trace of Precipitation, MM = Missing Value Source: Averaged Metar Reports

Daily Weather History Graph

Daily Weather History Graph

Search for Another Location

Airport or City:

Astronomy

Oct. 15, 2019 Rise Set
Actual Time 7:03 AM CDT 6:10 PM CDT
Civil Twilight 6:35 AM CDT 6:38 PM CDT
Nautical Twilight 6:03 AM CDT 7:10 PM CDT
Astronomical Twilight 5:30 AM CDT 7:43 PM CDT
Moon 7:28 PM CDT (10/15) 8:35 AM CDT (10/15)
Length of Visible Light 12h 02m
Length of Day
11h 06m
Full, 97% of the Moon is Illuminated
Oct 15
Full
Oct 21
Last Quarter
Oct 27
New
Nov 4
First Quarter
Nov 12
Full

Hourly Weather History & Observations

Time (CDT) Temp. Windchill Dew Point Humidity Pressure Visibility Wind Dir Wind Speed Gust Speed Precip Events Conditions
12:52 AM 42.1 °F - 37.0 °F 82% 30.06 in 10.0 mi Calm Calm - N/A   Clear
1:52 AM 39.9 °F - 36.0 °F 86% 30.06 in 10.0 mi Calm Calm - N/A   Clear
2:52 AM 39.9 °F - 36.0 °F 86% 30.05 in 10.0 mi Calm Calm - N/A   Clear
3:52 AM 39.9 °F - 36.0 °F 86% 30.03 in 10.0 mi Calm Calm - N/A   Clear
4:52 AM 41.0 °F - 36.0 °F 82% 30.00 in 10.0 mi Calm Calm - N/A   Clear
5:52 AM 41.0 °F 38.0 °F 34.0 °F 76% 29.98 in 10.0 mi South 4.6 mph - N/A   Clear
6:52 AM 43.0 °F 40.3 °F 35.1 °F 74% 29.96 in 10.0 mi South 4.6 mph - N/A   Clear
7:52 AM 48.0 °F - 37.9 °F 68% 29.92 in 10.0 mi SSE 9.2 mph - N/A   Clear
8:52 AM 52.0 °F - 37.9 °F 59% 29.90 in 10.0 mi South 10.4 mph - N/A   Mostly Cloudy
9:52 AM 55.0 °F - 39.0 °F 55% 29.86 in 10.0 mi South 10.4 mph - N/A   Overcast
10:52 AM 57.9 °F - 41.0 °F 53% 29.83 in 10.0 mi South 11.5 mph - N/A   Overcast
11:41 AM 57.0 °F - 43.0 °F 59% 29.81 in 10.0 mi SSW 16.1 mph - N/A   Overcast
11:52 AM 57.0 °F - 44.1 °F 62% 29.81 in 10.0 mi SSW 12.7 mph 21.9 mph N/A   Overcast
12:52 PM 57.9 °F - 46.9 °F 67% 29.77 in 10.0 mi South 11.5 mph 24.2 mph N/A   Overcast
1:52 PM 61.0 °F - 48.0 °F 62% 29.73 in 10.0 mi South 13.8 mph - N/A   Mostly Cloudy
2:52 PM 63.0 °F - 51.1 °F 65% 29.71 in 10.0 mi SSW 12.7 mph 24.2 mph N/A   Overcast
3:52 PM 63.0 °F - 53.1 °F 70% 29.72 in 8.0 mi WSW 6.9 mph - N/A   Overcast
3:59 PM 62.1 °F - 53.1 °F 72% 29.71 in 2.0 mi WSW 6.9 mph - N/A   Haze
4:21 PM 60.1 °F - 55.0 °F 83% 29.70 in 2.0 mi SSW 6.9 mph - N/A   Haze
4:34 PM 61.0 °F - 55.9 °F 83% 29.70 in 2.0 mi SSW 6.9 mph - N/A   Overcast
4:52 PM 61.0 °F - 55.9 °F 83% 29.71 in 8.0 mi SSW 5.8 mph - N/A   Overcast
5:52 PM 62.1 °F - 57.0 °F 84% 29.70 in 10.0 mi SSW 5.8 mph - N/A   Partly Cloudy
6:52 PM 61.0 °F - 46.9 °F 60% 29.73 in 10.0 mi WNW 20.7 mph 35.7 mph N/A   Mostly Cloudy
7:52 PM 55.0 °F - 42.1 °F 62% 29.77 in 10.0 mi WNW 15.0 mph 29.9 mph N/A   Clear
8:52 PM 54.0 °F - 42.1 °F 64% 29.78 in 10.0 mi WNW 11.5 mph 20.7 mph N/A   Mostly Cloudy
9:52 PM 52.0 °F - 37.9 °F 59% 29.79 in 10.0 mi WNW 12.7 mph 29.9 mph N/A   Partly Cloudy
10:52 PM 51.1 °F - 37.0 °F 59% 29.80 in 10.0 mi WNW 16.1 mph 24.2 mph N/A   Scattered Clouds
11:52 PM 50.0 °F - 36.0 °F 59% 29.79 in 10.0 mi WNW 16.1 mph 31.1 mph N/A   Clear